Tracking 19795 objects as of 17-Jul-2019
HD Live streaming from Space Station
objects crossing your sky now

AEROCUBE 2

Track AEROCUBE 2 now!
10-day predictions
AEROCUBE 2 is classified as:


NORAD ID: 31133
Int'l Code: 2007-012R
Perigee: 647.1 km
Apogee: 759.3 km
Inclination: 98.1 °
Period: 98.7 minutes
Semi major axis: 7074 km
RCS: 0.0127 m2 (small)
Launch date: April 17, 2007
Source: United States (US)
Launch site: TYURATAM MISSILE AND SPACE COMPLEX (TTMTR)

Uplink (MHz):
Downlink (MHz): 902-928
Beacon (MHz):
Mode: 9600bps GFSK
Call sign:
Status: Inactive

aabbcc
Your satellite tracking list
Your tracking list is empty




NASA's NSSDC Master Catalog

Two Line Element Set (TLE):
1 31133U 07012R   19198.38578803  .00000049  00000-0  20331-4 0  9997
2 31133  98.1249 143.7891 0079287 284.9227  74.3203 14.59113910651281
Source of the keplerian elements: AFSPC